Location: Bazinghen
(50.8246°N, 1.6616°E)
Time: 07:13:44
(UTC+00:00)

Cosmos 1140 Rocket - Pass Details

Date: 09 April 2020
Orbit: 745 x 767 km, 74.1° (Epoch: 01 June)

Event Time Altitude Azimuth Distance (km) Brightness Sun altitude
Rises 20:05:18 0° 204° (SSW) 3,202 6.6 -13.3°
Reaches altitude 10° 20:07:40 10° 205° (SSW) 2,278 5.9 -13.6°
Maximum altitude 20:12:50 84° 293° (WNW) 763 3.5 -14.3°
Drops below altitude 10° 20:18:01 10° 23° (NNE) 2,280 6.1 -15.0°
Sets 20:20:23 0° 25° (NNE) 3,206 6.8 -15.3°
